{"data":{"norad_id":63872,"epoch":"2026-05-25T02:10:50.795616Z","epoch_age_seconds":63341,"freshness":"FRESH","line1":"1 63872U 25094J   26145.09086569 -.00000442  00000+0 -29294-4 0  9998","line2":"2 63872  70.0032  41.9785 0002626 270.8817  89.2041 14.98319318 58647","mean_motion":14.98319318,"eccentricity":0.0002626,"inclination_deg":70.0032,"raan_deg":41.9785,"arg_perigee_deg":270.8817,"mean_anomaly_deg":89.2041,"bstar":-2.9294e-5,"rev_number":5864,"period_min":96.10768430338,"perigee_km":570.26379501678,"apogee_km":573.91405367224,"semimajor_km":6950.2259243445,"source":"CELESTRAK","updated_at":"2026-05-25T13:38:20.170789Z"}}